[[{"header":{"parameterUnit":"m.s-1","parameterCategory":1,"la1":30.2992,"la2":30.254,"lo1":-89.0895,"lo2":-89.0443,"dy":0.0025,"dx":0.0025,"nx":19,"ny":19,"refTime":"2026-04-07T09:00:00:Z","depth":0,"parameterNumber":2,"parameterNumberName":"U-component_of_WINDS"},"data":[0,0,0,-3.8249,-3.8251,-3.8326,-3.8326,-3.8424,-3.8425,0,0,0,0,0,0,0,0,0,0,0,-3.8225,-3.8226,-3.8249,-3.8251,-3.8326,-3.8326,-3.8424,-3.8425,0,0,0,0,0,0,0,0,0,0,0,-3.8225,-3.8226,-3.8227,-3.8251,-3.8326,-3.8326,-3.8424,-3.8367,0,0,0,0,0,0,0,0,0,0,-3.8294,-3.8269,-3.8226,-3.8227,-3.8252,-3.8326,-3.8326,-3.8364,-3.8371,-3.839,0,-3.8404,0,-3.8416,-3.8431,-3.8432,0,0,0,-3.8253,-3.8264,-3.8286,-3.8227,-3.8252,-3.8326,-3.8293,-3.8368,-3.8375,-3.8398,-3.8406,-3.841,-3.8418,-3.8432,-3.8432,-3.8536,-3.8536,0,0,-3.8249,-3.8238,-3.8281,-3.829,-3.8276,-3.829,-3.8295,-3.8372,-3.838,-3.8406,-3.8412,-3.8419,-3.8433,-3.8433,-3.8535,-3.8536,0,0,0,-3.8236,-3.8235,-3.8255,-3.8286,-3.83,-3.8292,-3.8298,-3.8377,-3.8384,-3.8413,-3.8421,-3.8433,-3.8434,-3.8535,-3.8535,-3.8546,0,0,0,-3.8233,-3.8228,-3.8253,-3.8248,-3.8298,-3.8339,-3.8301,-3.8379,-3.8388,-3.842,-3.8433,-3.8435,-3.8534,-3.8535,-3.8544,-3.8552,0,0,0,-3.8221,-3.8226,-3.8236,-3.8247,-3.8279,-3.8338,-3.8349,-3.8381,-3.8393,-3.8432,-3.8435,-3.8534,-3.8535,-3.8543,-3.855,-3.8578,0,0,0,-3.8206,-3.8244,-3.8236,-3.8282,-3.8278,-3.8343,-3.8349,-3.8398,-3.8433,-3.8434,-3.8534,-3.8535,-3.8543,-3.8549,-3.8576,-3.8599,-3.8607,0,0,-3.8248,-3.8248,-3.8276,-3.8272,-3.8335,-3.8332,-3.8398,-3.844,-3.8454,-3.8508,-3.8511,-3.8545,-3.855,-3.8578,-3.8656,-3.8662,0,0,0,-3.8286,-3.8306,-3.8326,-3.8358,-3.839,-3.8421,-3.8453,-3.847,-3.8517,-3.8479,-3.8562,-3.8566,-3.8582,-3.8594,-3.8599,-3.8615,-3.854,-3.854,-3.854,-3.8331,-3.8347,-3.8395,-3.8421,-3.8453,-3.8488,-3.8516,-3.8545,-3.855,-3.857,-3.8586,-3.8632,-3.8645,-3.8649,-3.8665,-3.8599,-3.8599,-3.8599,-3.8599,-3.8395,-3.8427,-3.8436,-3.8486,-3.8505,-3.8548,-3.8585,-3.8589,-3.8634,-3.862,-3.8635,-3.8619,-3.8655,-3.8671,-3.86,-3.86,-3.86,-3.86,-3.86,-3.8426,-3.8444,-3.8464,-3.8514,-3.8553,-3.8579,-3.8622,-3.8637,-3.8651,-3.8666,-3.8687,-3.8687,-3.869,-3.8675,-3.8675,-3.8675,-3.8676,-3.8676,-3.8676,-3.8451,-3.8472,-3.8506,-3.8547,-3.8571,-3.8606,-3.8644,-3.867,-3.8702,-3.871,-3.8711,-3.8717,-3.8655,-3.864,-3.8678,-3.8678,-3.8678,-3.8677,-3.8677,-3.8511,-3.85,-3.8552,-3.8577,-3.8628,-3.8667,-3.8686,-3.8738,-3.8761,-3.8783,-3.8787,-3.8739,-3.874,-3.8736,-3.8724,-3.8782,-3.8782,-3.8782,-3.8782,-3.8537,-3.854,-3.8598,-3.8638,-3.8678,-3.8702,-3.8764,-3.8797,-3.8828,-3.8845,-3.8839,-3.8824,-3.8819,-3.8824,-3.8818,-3.8807,-3.8884,-3.8884,-3.8885,-3.8576,-3.8584,-3.8632,-3.8662,-3.8704,-3.8741,-3.8801,-3.8849,-3.8883,-3.8889,-3.8859,-3.8855,-3.8831,-3.8821,-3.8825,-3.8815,-3.8795,0,0]},{"header":{"parameterUnit":"m.s-1","parameterCategory":1,"la1":30.2992,"la2":30.254,"lo1":-89.0895,"lo2":-89.0443,"dy":0.0025,"dx":0.0025,"nx":19,"ny":19,"refTime":"2026-04-07T09:00:00:Z","depth":0,"parameterNumber":3,"parameterNumberName":"V-component_of_WINDS"},"data":[0,0,0,-1.1569,-1.1571,-1.1685,-1.1685,-1.1819,-1.182,0,0,0,0,0,0,0,0,0,0,0,-1.1526,-1.1527,-1.1569,-1.1572,-1.1684,-1.1685,-1.1819,-1.182,0,0,0,0,0,0,0,0,0,0,0,-1.1526,-1.1526,-1.1527,-1.1572,-1.1684,-1.1685,-1.1819,-1.1738,0,0,0,0,0,0,0,0,0,0,-1.163,-1.158,-1.1526,-1.1527,-1.1573,-1.1684,-1.1685,-1.1734,-1.1743,-1.1763,0,-1.1774,0,-1.1799,-1.1828,-1.1829,0,0,0,-1.158,-1.1573,-1.1612,-1.1527,-1.1573,-1.1684,-1.1636,-1.1739,-1.1749,-1.1774,-1.1777,-1.1782,-1.1802,-1.1829,-1.183,-1.191,-1.191,0,0,-1.1573,-1.1542,-1.1605,-1.1618,-1.1596,-1.1632,-1.1639,-1.1746,-1.1747,-1.1777,-1.1785,-1.1804,-1.183,-1.1831,-1.191,-1.191,0,0,0,-1.155,-1.1537,-1.1574,-1.1612,-1.1633,-1.1635,-1.1643,-1.1743,-1.1757,-1.1787,-1.1805,-1.1831,-1.1832,-1.191,-1.191,-1.1878,0,0,0,-1.1547,-1.1524,-1.1571,-1.1553,-1.163,-1.1688,-1.1638,-1.175,-1.1763,-1.1805,-1.1831,-1.1833,-1.191,-1.191,-1.1879,-1.1869,0,0,0,-1.1522,-1.1521,-1.1533,-1.1551,-1.1598,-1.1687,-1.1708,-1.1753,-1.1774,-1.1829,-1.1834,-1.191,-1.191,-1.188,-1.1871,-1.1882,0,0,0,-1.1487,-1.1504,-1.1532,-1.1559,-1.1597,-1.1666,-1.1708,-1.1762,-1.1805,-1.1831,-1.191,-1.191,-1.188,-1.1872,-1.1882,-1.1886,-1.1883,0,0,-1.1492,-1.1504,-1.1522,-1.1551,-1.1606,-1.1651,-1.1705,-1.1775,-1.1811,-1.1876,-1.1878,-1.1879,-1.1871,-1.1882,-1.1882,-1.188,0,0,0,-1.1513,-1.1526,-1.1548,-1.1587,-1.164,-1.1686,-1.1752,-1.1779,-1.1835,-1.1836,-1.1887,-1.1883,-1.1891,-1.1894,-1.1892,-1.1902,-1.1909,-1.1909,-1.1909,-1.1474,-1.1517,-1.1552,-1.1608,-1.1646,-1.1714,-1.175,-1.1799,-1.1832,-1.1843,-1.1863,-1.1857,-1.1859,-1.1858,-1.1868,-1.1867,-1.1867,-1.1867,-1.1867,-1.1485,-1.1511,-1.1555,-1.1603,-1.165,-1.1693,-1.176,-1.1783,-1.1831,-1.1845,-1.1855,-1.1867,-1.1855,-1.1866,-1.1865,-1.1865,-1.1866,-1.1866,-1.1866,-1.1465,-1.1485,-1.1516,-1.1578,-1.1622,-1.1681,-1.1725,-1.1767,-1.1806,-1.1815,-1.1842,-1.1842,-1.1849,-1.1825,-1.1825,-1.1825,-1.1825,-1.1825,-1.1825,-1.1433,-1.1469,-1.1499,-1.1558,-1.159,-1.1637,-1.1707,-1.174,-1.1788,-1.1815,-1.1816,-1.1849,-1.1845,-1.1843,-1.1825,-1.1825,-1.1825,-1.1825,-1.1825,-1.1429,-1.1437,-1.1484,-1.1515,-1.1589,-1.1631,-1.1684,-1.1748,-1.1782,-1.1803,-1.1835,-1.1825,-1.1841,-1.1843,-1.1842,-1.1824,-1.1824,-1.1824,-1.1824,-1.1413,-1.1425,-1.1484,-1.1531,-1.1583,-1.1636,-1.1692,-1.1747,-1.1807,-1.1831,-1.184,-1.1842,-1.1842,-1.1859,-1.186,-1.186,-1.1847,-1.1847,-1.1847,-1.1414,-1.1433,-1.1471,-1.1527,-1.1588,-1.1641,-1.1696,-1.1752,-1.1821,-1.1849,-1.1852,-1.1851,-1.1855,-1.1854,-1.1882,-1.1883,-1.1884,0,0]}]]